Time,TemperatureF,DewpointF,PressureIn,WindDirection,WindDirectionDegrees,WindSpeedMPH,WindSpeedGustMPH,Humidity,HourlyPrecipIn,Conditions,Clouds,dailyrainin,SoftwareType,DateUTC
2013-08-08 00:00:00,68.3,64.3,29.97,East,90,4.0,4.0,87,0.00,,,0.00,Wunderground v.1.15,2013-08-08 05:00:00,
2013-08-08 00:05:00,68.1,64.1,29.98,East,90,3.0,5.0,87,0.00,,,0.00,Wunderground v.1.15,2013-08-08 05:05:00,
2013-08-08 00:10:00,68.1,64.1,29.98,East,90,3.0,3.0,87,0.00,,,0.00,Wunderground v.1.15,2013-08-08 05:10:00,
2013-08-08 00:20:00,68.1,64.1,29.98,East,90,2.0,5.0,87,0.00,,,0.00,Wunderground v.1.15,2013-08-08 05:20:00,
2013-08-08 00:25:00,68.1,63.8,29.98,East,90,2.0,5.0,86,0.00,,,0.00,Wunderground v.1.15,2013-08-08 05:25:00,
2013-08-08 00:30:00,68.1,63.8,29.98,East,90,2.0,5.0,86,0.00,,,0.00,Wunderground v.1.15,2013-08-08 05:30:00,
2013-08-08 00:35:00,68.0,63.7,29.98,East,90,2.0,5.0,86,0.00,,,0.00,Wunderground v.1.15,2013-08-08 05:35:00,
2013-08-08 00:40:00,67.9,63.6,29.98,East,90,3.0,6.0,86,0.00,,,0.00,Wunderground v.1.15,2013-08-08 05:40:00,
2013-08-08 00:45:00,67.7,63.4,29.98,East,90,4.0,6.0,86,0.00,,,0.00,Wunderground v.1.15,2013-08-08 05:45:00,
2013-08-08 00:54:00,67.4,63.4,29.98,East,90,3.0,5.0,87,0.00,,,0.00,Wunderground v.1.15,2013-08-08 05:54:00,
2013-08-08 00:59:00,67.3,63.3,29.98,East,90,4.0,5.0,87,0.00,,,0.00,Wunderground v.1.15,2013-08-08 05:59:00,
2013-08-08 01:04:00,67.3,63.6,29.98,East,90,4.0,5.0,88,0.00,,,0.00,Wunderground v.1.15,2013-08-08 06:04:00,
2013-08-08 01:09:00,67.3,63.6,29.98,East,90,4.0,4.0,88,0.00,,,0.00,Wunderground v.1.15,2013-08-08 06:09:00,
2013-08-08 01:14:00,67.2,63.5,29.98,East,90,4.0,5.0,88,0.00,,,0.00,Wunderground v.1.15,2013-08-08 06:14:00,
2013-08-08 01:20:00,67.2,63.5,29.98,East,90,4.0,5.0,88,0.00,,,0.00,Wunderground v.1.15,2013-08-08 06:20:00,
2013-08-08 01:25:00,67.2,63.5,29.97,East,90,3.0,6.0,88,0.00,,,0.00,Wunderground v.1.15,2013-08-08 06:25:00,
2013-08-08 01:30:00,67.2,63.5,29.97,East,90,4.0,7.0,88,0.00,,,0.00,Wunderground v.1.15,2013-08-08 06:30:00,
2013-08-08 01:35:00,67.2,63.5,29.97,East,90,4.0,7.0,88,0.00,,,0.00,Wunderground v.1.15,2013-08-08 06:35:00,
2013-08-08 01:40:00,67.2,63.2,29.98,East,90,4.0,4.0,87,0.00,,,0.00,Wunderground v.1.15,2013-08-08 06:40:00,
2013-08-08 01:45:00,67.1,63.4,29.97,East,90,4.0,5.0,88,0.00,,,0.00,Wunderground v.1.15,2013-08-08 06:45:00,
2013-08-08 01:55:00,66.8,63.1,29.97,East,90,4.0,5.0,88,0.00,,,0.00,Wunderground v.1.15,2013-08-08 06:55:00,
2013-08-08 02:00:00,66.9,63.2,29.97,East,96,5.0,5.0,88,0.00,,,0.00,Wunderground v.1.15,2013-08-08 07:00:00,
2013-08-08 02:05:00,66.9,63.2,29.96,East,97,6.0,6.0,88,0.00,,,0.00,Wunderground v.1.15,2013-08-08 07:05:00,
2013-08-08 02:10:00,66.9,62.9,29.96,East,97,6.0,6.0,87,0.00,,,0.00,Wunderground v.1.15,2013-08-08 07:10:00,
2013-08-08 02:15:00,66.9,62.9,29.96,ESE,103,6.0,6.0,87,0.00,,,0.00,Wunderground v.1.15,2013-08-08 07:15:00,
2013-08-08 02:20:00,66.9,62.9,29.96,ESE,109,6.0,6.0,87,0.00,,,0.00,Wunderground v.1.15,2013-08-08 07:20:00,
2013-08-08 02:30:00,66.7,63.0,29.96,ESE,109,6.0,6.0,88,0.00,,,0.00,Wunderground v.1.15,2013-08-08 07:30:00,
2013-08-08 02:35:00,66.6,62.9,29.96,ESE,109,5.0,6.0,88,0.00,,,0.00,Wunderground v.1.15,2013-08-08 07:35:00,
2013-08-08 02:40:00,66.5,62.8,29.96,ESE,109,4.0,4.0,88,0.00,,,0.00,Wunderground v.1.15,2013-08-08 07:40:00,
2013-08-08 02:45:00,66.4,63.1,29.95,ESE,109,2.0,5.0,89,0.00,,,0.00,Wunderground v.1.15,2013-08-08 07:45:00,
2013-08-08 02:50:00,66.3,63.0,29.95,ESE,109,2.0,5.0,89,0.00,,,0.00,Wunderground v.1.15,2013-08-08 07:50:00,
2013-08-08 03:00:00,66.2,62.9,29.95,ESE,109,4.0,5.0,89,0.00,,,0.00,Wunderground v.1.15,2013-08-08 08:00:00,
2013-08-08 03:05:00,66.2,62.9,29.95,ESE,109,4.0,5.0,89,0.00,,,0.00,Wunderground v.1.15,2013-08-08 08:05:00,
2013-08-08 03:10:00,66.2,62.9,29.95,ESE,109,4.0,5.0,89,0.00,,,0.00,Wunderground v.1.15,2013-08-08 08:10:00,
2013-08-08 03:15:00,66.2,62.9,29.95,ESE,109,3.0,5.0,89,0.00,,,0.00,Wunderground v.1.15,2013-08-08 08:15:00,
2013-08-08 03:20:00,66.3,63.0,29.95,ESE,109,2.0,5.0,89,0.00,,,0.00,Wunderground v.1.15,2013-08-08 08:20:00,
2013-08-08 03:25:00,66.5,62.8,29.95,ESE,109,1.0,5.0,88,0.00,,,0.00,Wunderground v.1.15,2013-08-08 08:25:00,
2013-08-08 03:35:00,66.5,63.2,29.95,ESE,109,0.0,5.0,89,0.00,,,0.00,Wunderground v.1.15,2013-08-08 08:35:00,
2013-08-08 03:40:00,66.2,63.2,29.95,ESE,109,0.0,5.0,90,0.00,,,0.00,Wunderground v.1.15,2013-08-08 08:40:00,
2013-08-08 03:45:00,65.9,62.9,29.95,ESE,109,1.0,5.0,90,0.00,,,0.00,Wunderground v.1.15,2013-08-08 08:45:00,
2013-08-08 03:50:00,65.8,62.8,29.95,ESE,109,2.0,2.0,90,0.00,,,0.00,Wunderground v.1.15,2013-08-08 08:50:00,
2013-08-08 03:55:00,65.7,63.0,29.95,ESE,109,1.0,5.0,91,0.00,,,0.00,Wunderground v.1.15,2013-08-08 08:55:00,
2013-08-08 04:05:00,65.6,62.9,29.94,ESE,109,0.0,5.0,91,0.00,,,0.00,Wunderground v.1.15,2013-08-08 09:05:00,
2013-08-08 04:10:00,65.5,62.8,29.94,ESE,109,1.0,5.0,91,0.00,,,0.00,Wunderground v.1.15,2013-08-08 09:10:00,
2013-08-08 04:15:00,65.5,62.8,29.94,ESE,109,1.0,5.0,91,0.00,,,0.00,Wunderground v.1.15,2013-08-08 09:15:00,
2013-08-08 04:20:00,65.5,62.8,29.93,ESE,109,1.0,5.0,91,0.00,,,0.00,Wunderground v.1.15,2013-08-08 09:20:00,
2013-08-08 04:25:00,65.6,62.9,29.93,ESE,109,1.0,5.0,91,0.00,,,0.00,Wunderground v.1.15,2013-08-08 09:25:00,
2013-08-08 04:30:00,65.6,62.6,29.93,ESE,109,1.0,5.0,90,0.00,,,0.00,Wunderground v.1.15,2013-08-08 09:30:00,
2013-08-08 04:35:00,65.5,62.8,29.93,ESE,109,1.0,5.0,91,0.00,,,0.00,Wunderground v.1.15,2013-08-08 09:35:00,
2013-08-08 04:40:00,65.4,62.4,29.93,ESE,109,2.0,5.0,90,0.00,,,0.00,Wunderground v.1.15,2013-08-08 09:40:00,
2013-08-08 04:45:00,65.2,62.5,29.93,ESE,109,2.0,5.0,91,0.00,,,0.00,Wunderground v.1.15,2013-08-08 09:45:00,
2013-08-08 04:50:00,65.1,62.4,29.93,ESE,109,1.0,1.0,91,0.00,,,0.00,Wunderground v.1.15,2013-08-08 09:50:00,
2013-08-08 04:55:00,65.0,62.3,29.93,ESE,109,0.0,4.0,91,0.00,,,0.00,Wunderground v.1.15,2013-08-08 09:55:00,
2013-08-08 05:00:00,65.0,62.3,29.93,ESE,109,1.0,1.0,91,0.00,,,0.00,Wunderground v.1.15,2013-08-08 10:00:00,
2013-08-08 05:10:00,64.7,62.0,29.93,ESE,109,2.0,5.0,91,0.00,,,0.00,Wunderground v.1.15,2013-08-08 10:10:00,
2013-08-08 05:15:00,64.6,61.9,29.93,ESE,109,3.0,7.0,91,0.00,,,0.00,Wunderground v.1.15,2013-08-08 10:15:00,
2013-08-08 05:20:00,64.6,62.2,29.93,ESE,109,4.0,5.0,92,0.00,,,0.00,Wunderground v.1.15,2013-08-08 10:20:00,
2013-08-08 05:25:00,64.5,62.1,29.93,ESE,109,5.0,5.0,92,0.00,,,0.00,Wunderground v.1.15,2013-08-08 10:25:00,
2013-08-08 05:30:00,64.7,62.0,29.94,ESE,107,6.0,6.0,91,0.00,,,0.00,Wunderground v.1.15,2013-08-08 10:30:00,
2013-08-08 05:35:00,64.8,62.1,29.94,East,101,6.0,6.0,91,0.00,,,0.00,Wunderground v.1.15,2013-08-08 10:35:00,
2013-08-08 05:45:00,64.8,62.1,29.94,ESE,103,7.0,7.0,91,0.00,,,0.00,Wunderground v.1.15,2013-08-08 10:45:00,
2013-08-08 05:50:00,64.7,62.0,29.94,ESE,110,7.0,7.0,91,0.00,,,0.00,Wunderground v.1.15,2013-08-08 10:50:00,
2013-08-08 05:55:00,64.7,62.0,29.94,ESE,112,7.0,9.0,91,0.00,,,0.00,Wunderground v.1.15,2013-08-08 10:55:00,
2013-08-08 06:00:00,64.7,62.0,29.95,ESE,112,7.0,7.0,91,0.00,,,0.00,Wunderground v.1.15,2013-08-08 11:00:00,
2013-08-08 06:05:00,64.7,62.0,29.95,ESE,114,8.0,8.0,91,0.00,,,0.00,Wunderground v.1.15,2013-08-08 11:05:00,
2013-08-08 06:10:00,64.7,62.0,29.94,ESE,112,8.0,9.0,91,0.00,,,0.00,Wunderground v.1.15,2013-08-08 11:10:00,
2013-08-08 06:15:00,64.7,62.0,29.94,ESE,112,8.0,9.0,91,0.00,,,0.00,Wunderground v.1.15,2013-08-08 11:15:00,
2013-08-08 06:20:00,64.8,62.1,29.95,ESE,108,8.0,8.0,91,0.00,,,0.00,Wunderground v.1.15,2013-08-08 11:20:00,
2013-08-08 06:25:00,64.7,62.0,29.95,ESE,112,8.0,9.0,91,0.00,,,0.00,Wunderground v.1.15,2013-08-08 11:25:00,
2013-08-08 06:30:00,64.6,61.9,29.95,ESE,115,8.0,9.0,91,0.00,,,0.00,Wunderground v.1.15,2013-08-08 11:30:00,
2013-08-08 06:35:00,64.5,61.8,29.95,ESE,116,8.0,9.0,91,0.00,,,0.00,Wunderground v.1.15,2013-08-08 11:35:00,
2013-08-08 06:40:00,64.4,62.0,29.95,ESE,117,8.0,8.0,92,0.00,,,0.00,Wunderground v.1.15,2013-08-08 11:40:00,
2013-08-08 06:50:00,64.1,61.7,29.96,ESE,117,7.0,7.0,92,0.00,,,0.00,Wunderground v.1.15,2013-08-08 11:50:00,
2013-08-08 06:55:00,64.1,61.7,29.96,ESE,119,7.0,9.0,92,0.00,,,0.00,Wunderground v.1.15,2013-08-08 11:55:00,
2013-08-08 07:00:00,64.0,61.9,29.96,ESE,119,8.0,8.0,93,0.00,,,0.00,Wunderground v.1.15,2013-08-08 12:00:00,
2013-08-08 07:05:00,64.0,61.9,29.96,ESE,123,8.0,9.0,93,0.00,,,0.00,Wunderground v.1.15,2013-08-08 12:05:00,
2013-08-08 07:10:00,64.0,61.9,29.96,ESE,123,7.0,7.0,93,0.00,,,0.00,Wunderground v.1.15,2013-08-08 12:10:00,
2013-08-08 07:19:00,64.0,61.9,29.96,ESE,123,6.0,6.0,93,0.00,,,0.00,Wunderground v.1.15,2013-08-08 12:19:00,
2013-08-08 07:24:00,64.0,61.9,29.97,ESE,123,7.0,7.0,93,0.00,,,0.00,Wunderground v.1.15,2013-08-08 12:24:00,
2013-08-08 07:29:00,64.1,62.0,29.97,ESE,123,7.0,7.0,93,0.00,,,0.00,Wunderground v.1.15,2013-08-08 12:29:00,
2013-08-08 07:34:00,64.1,62.0,29.97,ESE,123,6.0,7.0,93,0.00,,,0.00,Wunderground v.1.15,2013-08-08 12:34:00,
2013-08-08 07:39:00,64.2,62.1,29.98,ESE,123,5.0,5.0,93,0.00,,,0.00,Wunderground v.1.15,2013-08-08 12:39:00,
2013-08-08 07:44:00,64.3,62.2,29.98,ESE,123,5.0,7.0,93,0.00,,,0.00,Wunderground v.1.15,2013-08-08 12:44:00,
2013-08-08 07:50:00,64.4,62.3,29.98,SE,127,6.0,6.0,93,0.00,,,0.00,Wunderground v.1.15,2013-08-08 12:50:00,
2013-08-08 07:55:00,64.5,62.4,29.98,SE,127,6.0,6.0,93,0.00,,,0.00,Wunderground v.1.15,2013-08-08 12:55:00,
2013-08-08 08:00:00,64.5,62.4,29.98,SE,128,6.0,6.0,93,0.00,,,0.00,Wunderground v.1.15,2013-08-08 13:00:00,
2013-08-08 08:05:00,64.6,62.5,29.99,SE,136,7.0,9.0,93,0.00,,,0.00,Wunderground v.1.15,2013-08-08 13:05:00,
2013-08-08 08:10:00,64.7,62.6,29.99,SE,141,8.0,8.0,93,0.00,,,0.00,Wunderground v.1.15,2013-08-08 13:10:00,
2013-08-08 08:15:00,64.8,62.7,29.99,SE,141,8.0,8.0,93,0.00,,,0.00,Wunderground v.1.15,2013-08-08 13:15:00,
2013-08-08 08:25:00,65.0,62.6,29.99,SE,139,6.0,8.0,92,0.00,,,0.00,Wunderground v.1.15,2013-08-08 13:25:00,
2013-08-08 08:30:00,65.1,62.7,30.00,SE,132,5.0,6.0,92,0.00,,,0.00,Wunderground v.1.15,2013-08-08 13:30:00,
2013-08-08 08:35:00,65.3,62.9,30.00,SE,132,5.0,6.0,92,0.00,,,0.00,Wunderground v.1.15,2013-08-08 13:35:00,
2013-08-08 08:40:00,65.4,63.0,30.00,SE,132,4.0,4.0,92,0.00,,,0.00,Wunderground v.1.15,2013-08-08 13:40:00,
2013-08-08 08:45:00,65.4,63.0,30.00,SE,132,4.0,5.0,92,0.00,,,0.00,Wunderground v.1.15,2013-08-08 13:45:00,
2013-08-08 08:55:00,65.7,63.3,30.00,SE,142,4.0,5.0,92,0.00,,,0.00,Wunderground v.1.15,2013-08-08 13:55:00,
2013-08-08 09:00:00,65.9,63.2,30.00,SE,142,4.0,4.0,91,0.00,,,0.00,Wunderground v.1.15,2013-08-08 14:00:00,
2013-08-08 09:05:00,66.0,63.3,30.00,SE,142,3.0,5.0,91,0.00,,,0.00,Wunderground v.1.15,2013-08-08 14:05:00,
2013-08-08 09:10:00,66.2,63.2,30.01,SE,142,1.0,1.0,90,0.00,,,0.00,Wunderground v.1.15,2013-08-08 14:10:00,
2013-08-08 09:15:00,66.4,63.4,30.01,SE,142,0.0,2.0,90,0.00,,,0.00,Wunderground v.1.15,2013-08-08 14:15:00,
2013-08-08 09:20:00,66.5,63.2,30.01,SE,142,1.0,1.0,89,0.00,,,0.00,Wunderground v.1.15,2013-08-08 14:20:00,
2013-08-08 09:30:00,67.2,63.8,30.00,SE,142,1.0,6.0,89,0.00,,,0.00,Wunderground v.1.15,2013-08-08 14:30:00,
2013-08-08 09:35:00,67.4,63.7,30.00,SE,142,3.0,6.0,88,0.00,,,0.00,Wunderground v.1.15,2013-08-08 14:35:00,
2013-08-08 09:40:00,67.7,64.3,30.00,SE,142,3.0,3.0,89,0.00,,,0.00,Wunderground v.1.15,2013-08-08 14:40:00,
2013-08-08 09:45:00,67.9,64.2,30.00,SE,142,2.0,4.0,88,0.00,,,0.00,Wunderground v.1.15,2013-08-08 14:45:00,
2013-08-08 09:50:00,68.2,64.2,30.00,SE,142,3.0,5.0,87,0.00,,,0.00,Wunderground v.1.15,2013-08-08 14:50:00,
2013-08-08 10:00:00,68.6,64.2,30.00,SE,142,2.0,2.0,86,0.00,,,0.00,Wunderground v.1.15,2013-08-08 15:00:00,
2013-08-08 10:05:00,68.9,64.5,30.00,SE,142,1.0,5.0,86,0.00,,,0.00,Wunderground v.1.15,2013-08-08 15:05:00,
2013-08-08 10:10:00,69.4,64.7,30.00,SE,142,2.0,5.0,85,0.00,,,0.00,Wunderground v.1.15,2013-08-08 15:10:00,
2013-08-08 10:15:00,69.7,65.0,30.00,SE,142,3.0,5.0,85,0.00,,,0.00,Wunderground v.1.15,2013-08-08 15:15:00,
2013-08-08 10:20:00,70.1,65.0,30.00,SE,142,1.0,1.0,84,0.00,,,0.00,Wunderground v.1.15,2013-08-08 15:20:00,
2013-08-08 10:25:00,70.3,64.5,30.00,SE,142,1.0,5.0,82,0.00,,,0.00,Wunderground v.1.15,2013-08-08 15:25:00,
2013-08-08 10:35:00,70.6,64.8,29.99,SE,142,1.0,5.0,82,0.00,,,0.00,Wunderground v.1.15,2013-08-08 15:35:00,
2013-08-08 10:40:00,71.0,64.5,30.00,SE,142,2.0,2.0,80,0.00,,,0.00,Wunderground v.1.15,2013-08-08 15:40:00,
2013-08-08 10:45:00,71.3,64.8,30.00,SE,142,1.0,5.0,80,0.00,,,0.00,Wunderground v.1.15,2013-08-08 15:45:00,
2013-08-08 10:50:00,71.8,64.9,30.00,SE,142,0.0,5.0,79,0.00,,,0.00,Wunderground v.1.15,2013-08-08 15:50:00,
2013-08-08 10:55:00,72.6,65.7,29.99,SE,142,0.0,5.0,79,0.00,,,0.00,Wunderground v.1.15,2013-08-08 15:55:00,
2013-08-08 11:05:00,73.8,66.5,29.99,SE,142,1.0,5.0,78,0.00,,,0.00,Wunderground v.1.15,2013-08-08 16:05:00,
2013-08-08 11:10:00,74.1,65.7,29.99,SE,142,0.0,5.0,75,0.00,,,0.00,Wunderground v.1.15,2013-08-08 16:10:00,
2013-08-08 11:15:00,73.9,65.5,29.99,SE,142,0.0,5.0,75,0.00,,,0.00,Wunderground v.1.15,2013-08-08 16:15:00,
2013-08-08 11:20:00,73.1,65.5,29.99,SE,142,1.0,5.0,77,0.00,,,0.00,Wunderground v.1.15,2013-08-08 16:20:00,
2013-08-08 11:25:00,72.6,65.0,29.99,SE,142,1.0,5.0,77,0.00,,,0.00,Wunderground v.1.15,2013-08-08 16:25:00,
2013-08-08 11:30:00,72.8,65.5,29.99,SE,142,0.0,5.0,78,0.00,,,0.00,Wunderground v.1.15,2013-08-08 16:30:00,
2013-08-08 11:40:00,72.8,64.8,29.99,SE,141,2.0,2.0,76,0.00,,,0.00,Wunderground v.1.15,2013-08-08 16:40:00,
2013-08-08 11:45:00,72.9,65.6,29.99,SE,141,1.0,5.0,78,0.00,,,0.00,Wunderground v.1.15,2013-08-08 16:45:00,
2013-08-08 11:50:00,73.2,65.6,29.99,SE,141,0.0,5.0,77,0.00,,,0.00,Wunderground v.1.15,2013-08-08 16:50:00,
2013-08-08 11:55:00,73.2,66.3,29.99,SE,141,1.0,5.0,79,0.00,,,0.00,Wunderground v.1.15,2013-08-08 16:55:00,
2013-08-08 12:00:00,73.3,65.7,29.99,SE,141,1.0,5.0,77,0.00,,,0.00,Wunderground v.1.15,2013-08-08 17:00:00,
2013-08-08 12:10:00,73.4,65.7,29.99,SE,142,2.0,2.0,77,0.00,,,0.00,Wunderground v.1.15,2013-08-08 17:10:00,
2013-08-08 12:15:00,73.7,65.3,29.99,SE,142,1.0,5.0,75,0.00,,,0.00,Wunderground v.1.15,2013-08-08 17:15:00,
2013-08-08 12:20:00,74.0,65.2,29.99,SE,141,0.0,5.0,74,0.00,,,0.00,Wunderground v.1.15,2013-08-08 17:20:00,
2013-08-08 12:25:00,74.4,66.3,29.99,SE,142,2.0,5.0,76,0.00,,,0.00,Wunderground v.1.15,2013-08-08 17:25:00,
2013-08-08 12:30:00,74.3,65.5,29.99,SE,141,3.0,3.0,74,0.00,,,0.00,Wunderground v.1.15,2013-08-08 17:30:00,
2013-08-08 12:35:00,74.5,65.7,29.99,SE,142,2.0,5.0,74,0.00,,,0.00,Wunderground v.1.15,2013-08-08 17:35:00,
2013-08-08 12:45:00,74.1,67.2,30.00,SE,132,3.0,9.0,79,0.00,,,0.00,Wunderground v.1.15,2013-08-08 17:45:00,
2013-08-08 12:50:00,73.6,65.6,30.00,SE,143,5.0,5.0,76,0.00,,,0.00,Wunderground v.1.15,2013-08-08 17:50:00,
2013-08-08 12:55:00,73.8,66.1,30.00,SE,143,6.0,6.0,77,0.00,,,0.00,Wunderground v.1.15,2013-08-08 17:55:00,
2013-08-08 13:00:00,74.1,66.0,30.00,SE,143,3.0,5.0,76,0.00,,,0.00,Wunderground v.1.15,2013-08-08 18:00:00,
2013-08-08 13:05:00,74.2,66.1,30.00,SE,143,2.0,5.0,76,0.00,,,0.00,Wunderground v.1.15,2013-08-08 18:05:00,
2013-08-08 13:15:00,74.7,66.2,30.00,ESE,121,2.0,5.0,75,0.00,,,0.00,Wunderground v.1.15,2013-08-08 18:15:00,
2013-08-08 13:20:00,74.7,65.9,30.00,ESE,121,2.0,2.0,74,0.00,,,0.00,Wunderground v.1.15,2013-08-08 18:20:00,
2013-08-08 13:25:00,74.9,66.4,30.00,ESE,121,1.0,5.0,75,0.00,,,0.00,Wunderground v.1.15,2013-08-08 18:25:00,
2013-08-08 13:30:00,75.1,66.2,30.00,ESE,121,1.0,5.0,74,0.00,,,0.00,Wunderground v.1.15,2013-08-08 18:30:00,
2013-08-08 13:35:00,75.0,66.9,30.01,ESE,121,2.0,5.0,76,0.00,,,0.00,Wunderground v.1.15,2013-08-08 18:35:00,
2013-08-08 13:40:00,74.8,66.3,30.01,ESE,121,2.0,2.0,75,0.00,,,0.00,Wunderground v.1.15,2013-08-08 18:40:00,
2013-08-08 13:50:00,74.4,66.7,30.01,ESE,121,1.0,5.0,77,0.00,,,0.00,Wunderground v.1.15,2013-08-08 18:50:00,
2013-08-08 13:55:00,74.2,66.1,30.01,ESE,121,2.0,5.0,76,0.00,,,0.00,Wunderground v.1.15,2013-08-08 18:55:00,
2013-08-08 14:00:00,74.2,66.1,30.01,ESE,121,2.0,2.0,76,0.00,,,0.00,Wunderground v.1.15,2013-08-08 19:00:00,
2013-08-08 14:05:00,74.2,66.5,30.01,ESE,121,2.0,3.0,77,0.00,,,0.00,Wunderground v.1.15,2013-08-08 19:05:00,
2013-08-08 14:10:00,74.0,66.3,30.01,ESE,121,3.0,3.0,77,0.00,,,0.00,Wunderground v.1.15,2013-08-08 19:10:00,
2013-08-08 14:20:00,74.2,66.9,30.01,ESE,121,1.0,1.0,78,0.00,,,0.00,Wunderground v.1.15,2013-08-08 19:20:00,
2013-08-08 14:25:00,74.4,66.3,30.01,ESE,121,0.0,5.0,76,0.00,,,0.00,Wunderground v.1.15,2013-08-08 19:25:00,
2013-08-08 14:30:00,74.9,66.4,30.01,ESE,121,0.0,5.0,75,0.00,,,0.00,Wunderground v.1.15,2013-08-08 19:30:00,
2013-08-08 14:35:00,75.5,67.0,30.01,ESE,115,1.0,5.0,75,0.00,,,0.00,Wunderground v.1.15,2013-08-08 19:35:00,
2013-08-08 14:40:00,75.6,67.1,30.01,ESE,113,1.0,1.0,75,0.00,,,0.00,Wunderground v.1.15,2013-08-08 19:40:00,
2013-08-08 14:45:00,75.7,67.2,30.01,ESE,113,1.0,5.0,75,0.00,,,0.00,Wunderground v.1.15,2013-08-08 19:45:00,
2013-08-08 14:55:00,75.3,67.2,30.02,ESE,113,1.0,5.0,76,0.00,,,0.00,Wunderground v.1.15,2013-08-08 19:55:00,
2013-08-08 15:04:00,75.1,66.6,30.01,ESE,113,1.0,5.0,75,0.00,,,0.00,Wunderground v.1.15,2013-08-08 20:04:00,
2013-08-08 15:09:00,75.1,67.0,30.02,ESE,113,1.0,1.0,76,0.00,,,0.00,Wunderground v.1.15,2013-08-08 20:09:00,
2013-08-08 15:14:00,75.0,66.9,30.02,ESE,113,1.0,5.0,76,0.00,,,0.00,Wunderground v.1.15,2013-08-08 20:14:00,
2013-08-08 15:19:00,74.9,66.8,30.02,ESE,113,1.0,1.0,76,0.00,,,0.00,Wunderground v.1.15,2013-08-08 20:19:00,
2013-08-08 15:25:00,75.1,67.8,30.02,ESE,113,1.0,5.0,78,0.00,,,0.00,Wunderground v.1.15,2013-08-08 20:25:00,
2013-08-08 15:30:00,75.3,67.6,30.01,ESE,113,1.0,1.0,77,0.00,,,0.00,Wunderground v.1.15,2013-08-08 20:30:00,
2013-08-08 15:35:00,75.1,67.8,30.01,ESE,113,0.0,5.0,78,0.00,,,0.00,Wunderground v.1.15,2013-08-08 20:35:00,
2013-08-08 15:40:00,74.8,67.5,30.02,ESE,113,1.0,5.0,78,0.00,,,0.00,Wunderground v.1.15,2013-08-08 20:40:00,
2013-08-08 15:45:00,74.6,66.5,30.01,ESE,113,2.0,5.0,76,0.00,,,0.00,Wunderground v.1.15,2013-08-08 20:45:00,
2013-08-08 15:55:00,74.7,67.8,30.01,ESE,113,2.0,5.0,79,0.00,,,0.00,Wunderground v.1.15,2013-08-08 20:55:00,
2013-08-08 16:00:00,74.7,67.8,30.01,ESE,113,2.0,5.0,79,0.00,,,0.00,Wunderground v.1.15,2013-08-08 21:00:00,
2013-08-08 16:05:00,74.5,67.2,30.01,ESE,113,3.0,5.0,78,0.00,,,0.00,Wunderground v.1.15,2013-08-08 21:05:00,
2013-08-08 16:10:00,74.5,67.9,30.01,ESE,113,3.0,3.0,80,0.00,,,0.00,Wunderground v.1.15,2013-08-08 21:10:00,
2013-08-08 16:24:00,74.7,67.0,30.01,ESE,113,2.0,5.0,77,0.00,,,0.00,Wunderground v.1.15,2013-08-08 21:24:00,
2013-08-08 16:29:00,74.8,66.3,30.01,East,96,3.0,5.0,75,0.00,,,0.00,Wunderground v.1.15,2013-08-08 21:29:00,
2013-08-08 16:35:00,74.9,67.2,30.01,East,96,2.0,5.0,77,0.00,,,0.00,Wunderground v.1.15,2013-08-08 21:35:00,
2013-08-08 16:40:00,75.0,66.9,30.01,East,96,1.0,5.0,76,0.00,,,0.00,Wunderground v.1.15,2013-08-08 21:40:00,
2013-08-08 16:50:00,74.8,67.1,30.01,East,96,2.0,5.0,77,0.00,,,0.00,Wunderground v.1.15,2013-08-08 21:50:00,
2013-08-08 16:55:00,74.8,67.1,30.01,East,96,1.0,5.0,77,0.00,,,0.00,Wunderground v.1.15,2013-08-08 21:55:00,
2013-08-08 17:00:00,74.7,67.4,30.01,East,96,0.0,5.0,78,0.00,,,0.00,Wunderground v.1.15,2013-08-08 22:00:00,
2013-08-08 17:05:00,74.8,67.5,30.01,East,96,0.0,5.0,78,0.00,,,0.00,Wunderground v.1.15,2013-08-08 22:05:00,
2013-08-08 17:15:00,74.7,67.0,30.01,East,96,2.0,5.0,77,0.00,,,0.00,Wunderground v.1.15,2013-08-08 22:15:00,
2013-08-08 17:24:00,74.5,67.2,30.01,East,96,2.0,5.0,78,0.00,,,0.00,Wunderground v.1.15,2013-08-08 22:24:00,
2013-08-08 17:29:00,74.3,67.0,30.01,East,96,1.0,5.0,78,0.00,,,0.00,Wunderground v.1.15,2013-08-08 22:29:00,
2013-08-08 17:34:00,74.1,66.8,30.01,East,96,1.0,5.0,78,0.00,,,0.00,Wunderground v.1.15,2013-08-08 22:34:00,
2013-08-08 17:39:00,74.0,67.1,30.01,East,96,1.0,1.0,79,0.00,,,0.00,Wunderground v.1.15,2013-08-08 22:39:00,
2013-08-08 17:45:00,73.9,67.0,30.01,East,96,1.0,5.0,79,0.00,,,0.00,Wunderground v.1.15,2013-08-08 22:45:00,
2013-08-08 17:54:00,73.8,67.2,30.01,East,96,0.0,5.0,80,0.00,,,0.00,Wunderground v.1.15,2013-08-08 22:54:00,
2013-08-08 17:59:00,73.7,67.1,30.01,East,96,0.0,5.0,80,0.00,,,0.00,Wunderground v.1.15,2013-08-08 22:59:00,
2013-08-08 18:04:00,73.6,67.0,30.01,East,96,0.0,5.0,80,0.00,,,0.00,Wunderground v.1.15,2013-08-08 23:04:00,
2013-08-08 18:09:00,73.5,67.3,30.01,East,96,0.0,5.0,81,0.00,,,0.00,Wunderground v.1.15,2013-08-08 23:09:00,
2013-08-08 18:15:00,73.2,67.4,30.01,East,96,1.0,5.0,82,0.00,,,0.00,Wunderground v.1.15,2013-08-08 23:15:00,
2013-08-08 18:20:00,73.2,67.4,30.01,East,96,1.0,1.0,82,0.00,,,0.00,Wunderground v.1.15,2013-08-08 23:20:00,
2013-08-08 18:25:00,73.1,67.6,30.01,East,96,0.0,5.0,83,0.00,,,0.00,Wunderground v.1.15,2013-08-08 23:25:00,
2013-08-08 18:30:00,73.0,67.5,30.00,East,96,0.0,5.0,83,0.00,,,0.00,Wunderground v.1.15,2013-08-08 23:30:00,
2013-08-08 18:40:00,72.7,67.2,30.00,East,96,3.0,3.0,83,0.00,,,0.00,Wunderground v.1.15,2013-08-08 23:40:00,
2013-08-08 18:45:00,72.7,67.6,30.00,East,96,2.0,5.0,84,0.00,,,0.00,Wunderground v.1.15,2013-08-08 23:45:00,
2013-08-08 18:55:00,72.6,67.5,30.00,East,96,0.0,5.0,84,0.00,,,0.00,Wunderground v.1.15,2013-08-08 23:55:00,
2013-08-08 19:00:00,72.5,67.4,30.00,East,96,0.0,5.0,84,0.00,,,0.00,Wunderground v.1.15,2013-08-09 00:00:00,
2013-08-08 19:10:00,72.6,67.5,30.00,East,96,0.0,5.0,84,0.00,,,0.00,Wunderground v.1.15,2013-08-09 00:10:00,
2013-08-08 19:15:00,72.5,67.4,30.00,East,96,1.0,5.0,84,0.00,,,0.00,Wunderground v.1.15,2013-08-09 00:15:00,
2013-08-08 19:20:00,72.5,67.4,30.00,East,96,1.0,1.0,84,0.00,,,0.00,Wunderground v.1.15,2013-08-09 00:20:00,
2013-08-08 19:30:00,72.4,67.6,30.00,East,96,0.0,5.0,85,0.00,,,0.00,Wunderground v.1.15,2013-08-09 00:30:00,
2013-08-08 19:35:00,72.3,67.5,30.00,East,96,0.0,5.0,85,0.00,,,0.00,Wunderground v.1.15,2013-08-09 00:35:00,
2013-08-08 19:40:00,72.2,67.4,29.99,East,96,0.0,5.0,85,0.00,,,0.00,Wunderground v.1.15,2013-08-09 00:40:00,
2013-08-08 19:45:00,72.0,67.2,29.99,East,96,1.0,5.0,85,0.00,,,0.00,Wunderground v.1.15,2013-08-09 00:45:00,
2013-08-08 19:50:00,71.9,67.5,29.99,East,96,1.0,1.0,86,0.00,,,0.00,Wunderground v.1.15,2013-08-09 00:50:00,
2013-08-08 19:59:00,71.6,67.5,29.99,East,96,0.0,5.0,87,0.00,,,0.00,Wunderground v.1.15,2013-08-09 00:59:00,
2013-08-08 20:05:00,71.3,67.2,30.00,East,96,0.0,5.0,87,0.00,,,0.00,Wunderground v.1.15,2013-08-09 01:05:00,
2013-08-08 20:10:00,71.1,67.0,29.99,East,96,1.0,1.0,87,0.00,,,0.00,Wunderground v.1.15,2013-08-09 01:10:00,
2013-08-08 20:15:00,71.0,67.3,29.99,East,96,1.0,5.0,88,0.00,,,0.00,Wunderground v.1.15,2013-08-09 01:15:00,
2013-08-08 20:20:00,70.9,67.2,29.99,East,96,0.0,5.0,88,0.00,,,0.00,Wunderground v.1.15,2013-08-09 01:20:00,
2013-08-08 20:25:00,70.7,67.0,29.99,East,96,0.0,5.0,88,0.00,,,0.00,Wunderground v.1.15,2013-08-09 01:25:00,
2013-08-08 20:30:00,70.5,67.1,29.99,East,96,0.0,5.0,89,0.00,,,0.00,Wunderground v.1.15,2013-08-09 01:30:00,
2013-08-08 20:40:00,70.2,67.1,29.99,East,96,3.0,5.0,90,0.00,,,0.00,Wunderground v.1.15,2013-08-09 01:40:00,
2013-08-08 20:45:00,70.1,67.3,29.99,East,96,4.0,6.0,91,0.00,,,0.00,Wunderground v.1.15,2013-08-09 01:45:00,
2013-08-08 20:50:00,69.8,67.1,29.99,East,96,5.0,5.0,91,0.00,,,0.00,Wunderground v.1.15,2013-08-09 01:50:00,
2013-08-08 20:55:00,69.5,66.8,29.99,East,96,3.0,5.0,91,0.00,,,0.00,Wunderground v.1.15,2013-08-09 01:55:00,
2013-08-08 21:05:00,69.2,66.8,30.00,East,96,2.0,6.0,92,0.00,,,0.00,Wunderground v.1.15,2013-08-09 02:05:00,
2013-08-08 21:10:00,69.0,66.3,30.00,East,96,4.0,6.0,91,0.00,,,0.00,Wunderground v.1.15,2013-08-09 02:10:00,
2013-08-08 21:20:00,68.7,66.3,30.00,East,96,5.0,5.0,92,0.00,,,0.00,Wunderground v.1.15,2013-08-09 02:20:00,
2013-08-08 21:25:00,68.6,66.2,30.00,East,96,4.0,5.0,92,0.00,,,0.00,Wunderground v.1.15,2013-08-09 02:25:00,
2013-08-08 21:30:00,68.5,66.1,30.00,East,96,2.0,2.0,92,0.00,,,0.00,Wunderground v.1.15,2013-08-09 02:30:00,
2013-08-08 21:35:00,68.5,66.1,30.01,East,96,2.0,5.0,92,0.00,,,0.00,Wunderground v.1.15,2013-08-09 02:35:00,
2013-08-08 21:40:00,68.5,66.1,30.01,East,96,4.0,4.0,92,0.00,,,0.00,Wunderground v.1.15,2013-08-09 02:40:00,
2013-08-08 21:45:00,68.4,66.0,30.01,East,96,3.0,5.0,92,0.00,,,0.00,Wunderground v.1.15,2013-08-09 02:45:00,
2013-08-08 21:54:00,68.4,66.3,30.01,East,96,3.0,5.0,93,0.00,,,0.00,Wunderground v.1.15,2013-08-09 02:54:00,
2013-08-08 21:59:00,68.4,66.3,30.02,East,96,2.0,2.0,93,0.00,,,0.00,Wunderground v.1.15,2013-08-09 02:59:00,
2013-08-08 22:04:00,68.3,66.2,30.02,East,96,1.0,5.0,93,0.00,,,0.00,Wunderground v.1.15,2013-08-09 03:04:00,
2013-08-08 22:10:00,68.3,66.2,30.02,East,96,1.0,5.0,93,0.00,,,0.00,Wunderground v.1.15,2013-08-09 03:10:00,
2013-08-08 22:19:00,68.1,66.0,30.02,East,96,4.0,4.0,93,0.00,,,0.00,Wunderground v.1.15,2013-08-09 03:19:00,
2013-08-08 22:29:00,67.9,65.8,30.02,East,96,4.0,6.0,93,0.00,,,0.00,Wunderground v.1.15,2013-08-09 03:29:00,
2013-08-08 22:34:00,67.7,65.6,30.02,East,96,5.0,6.0,93,0.00,,,0.00,Wunderground v.1.15,2013-08-09 03:34:00,
2013-08-08 22:39:00,67.7,65.6,30.03,East,96,3.0,3.0,93,0.00,,,0.00,Wunderground v.1.15,2013-08-09 03:39:00,
2013-08-08 22:44:00,67.7,65.9,30.03,East,96,0.0,5.0,94,0.00,,,0.00,Wunderground v.1.15,2013-08-09 03:44:00,
2013-08-08 22:49:00,67.6,65.5,30.03,East,96,0.0,5.0,93,0.00,,,0.00,Wunderground v.1.15,2013-08-09 03:49:00,
2013-08-08 22:54:00,67.6,65.5,30.03,East,96,0.0,5.0,93,0.00,,,0.00,Wunderground v.1.15,2013-08-09 03:54:00,
2013-08-08 23:04:00,67.6,65.5,30.03,East,96,2.0,5.0,93,0.00,,,0.00,Wunderground v.1.15,2013-08-09 04:04:00,
2013-08-08 23:09:00,67.5,65.4,30.03,East,96,4.0,4.0,93,0.00,,,0.00,Wunderground v.1.15,2013-08-09 04:09:00,
2013-08-08 23:14:00,67.5,65.4,30.03,East,96,4.0,5.0,93,0.00,,,0.00,Wunderground v.1.15,2013-08-09 04:14:00,
2013-08-08 23:19:00,67.5,65.7,30.03,East,96,3.0,5.0,94,0.00,,,0.00,Wunderground v.1.15,2013-08-09 04:19:00,
2013-08-08 23:24:00,67.4,65.6,30.03,East,96,3.0,5.0,94,0.00,,,0.00,Wunderground v.1.15,2013-08-09 04:24:00,
2013-08-08 23:29:00,67.3,65.5,30.03,East,96,3.0,3.0,94,0.00,,,0.00,Wunderground v.1.15,2013-08-09 04:29:00,
2013-08-08 23:34:00,67.1,65.3,30.03,East,96,2.0,5.0,94,0.00,,,0.00,Wunderground v.1.15,2013-08-09 04:34:00,
2013-08-08 23:39:00,67.1,65.3,30.03,East,96,3.0,5.0,94,0.00,,,0.00,Wunderground v.1.15,2013-08-09 04:39:00,
2013-08-08 23:44:00,67.1,65.3,30.03,East,96,3.0,5.0,94,0.00,,,0.00,Wunderground v.1.15,2013-08-09 04:44:00,
2013-08-08 23:49:00,67.0,65.2,30.03,East,96,2.0,5.0,94,0.00,,,0.00,Wunderground v.1.15,2013-08-09 04:49:00,
2013-08-08 23:54:00,67.0,65.2,30.03,East,96,1.0,5.0,94,0.00,,,0.00,Wunderground v.1.15,2013-08-09 04:54:00,
2013-08-08 23:59:00,67.0,65.5,30.03,East,96,1.0,1.0,95,0.00,,,0.00,Wunderground v.1.15,2013-08-09 04:59:00,